Other Public Products
Issued by NWS Grand Forks, ND

Home | Current Version | Previous Version | Graphics & Text | Print | Product List | Glossary On
Versions: 1 2 3 4 5 6 7 8 9 10 11 12 13 14 15 16 17 18 19 20 21 22 23 24 25 26 27 28 29 30 31 32 33 34 35 36 37 38 39 40 41 42 43 44 45 46 47 48 49 50
000
FPUS83 KFGF 192010
OPUFGF
PRAIRIE TO PINES WEATHER ROUNDUP
NATIONAL WEATHER SERVICE EASTERN NORTH DAKOTA/GRAND FORKS ND
200 PM CST MON FEB 19 2018

 **SATELLITE DATA USED TO AUGMENT SKY COVER AT AUTOMATED STATIONS**
 *****  WEATHER ACROSS EASTERN NORTH DAKOTA  *****

CITY           SKY/WX    TMP DP  RH WIND       PRES   REMARKS
GRAND FORKS    CLOUDY     6  -5  60 N18       30.23F WCI -13
GRND FORKS AFB FAIR       4  -7  60 N15       30.23F WCI -14
GRND FORKS NWS   N/A      6  -2  71 N14       30.20F WCI -11
BUXTON           N/A      6   2  83 N15         N/A  WCI -12
DEVILS LAKE    FAIR       3  -8  60 N6        30.21S WCI  -8
FARGO          CLOUDY    10   2  69 N18       30.15S WCI  -8
WAHPETON ARPT  CLOUDY    14   1  57 N18       30.07F WCI  -3
$$

 *****  WEATHER ACROSS CENTRAL AND WESTERN NORTH DAKOTA  *****

CITY           SKY/WX    TMP DP  RH WIND       PRES   REMARKS
JAMESTOWN      CLOUDY     7  -4  60 NE18      30.15S WCI -12
BISMARCK       CLOUDY     7  -5  57 NE13      30.17F WCI  -9
MINOT          CLOUDY     8  -4  58 W3        30.19S
MINOT AFB      PTSUNNY    6  -6  59 SW5       30.19S WCI  -3
GARRISON         N/A      4  -7  60 W5        30.17F WCI  -5
WILLISTON      CLOUDY     5  -5  63 CALM      30.16F
DICKINSON      LGT SNOW   4  -6  63 E7        30.06S WCI  -8
HETTINGER      LGT SNOW   3  -4  72 NE9       30.05F VSB 1   WCI -12
$$

 *****  OTHER OBSERVATIONS NORTHEAST NORTH DAKOTA  *****

CITY           SKY/WX    TMP DP  RH WIND       PRES   REMARKS
WALHALLA       FAIR       5  -8  56 N6        30.26F WCI  -6
LANGDON        NOT AVBL
CAVALIER         N/A      5  -8  56 N10       30.26S WCI -10
GRAFTON        NOT AVBL
CANDO          FAIR       7  -8  51 CALM      30.23R
FORT TOTTEN      N/A      8 -10  44 NE5       29.95  WCI   0
ROLLA          FAIR       3  -9  55 S6        30.18R WCI  -8
RUGBY          NOT AVBL
 ***** THE ABOVE OBSERVATIONS ARE NON NWS ARE NOT QUALITY
        CONTROLLED AND MAY MIS-REPORT RAIN FOR SNOW...
$$

 *****  OTHER OBSERVATIONS SOUTHEAST NORTH DAKOTA *****

CITY           SKY/WX    TMP DP  RH WIND       PRES   REMARKS
COOPERSTOWN    FAIR       3  -6  66 NE15      30.18S WCI -15
VALLEY CITY    NOT AVBL
OAKES            N/A      9   0  66 N21G29    30.10S WCI -11
GWINNER          N/A     10   1  67 NE25      30.08F WCI -10
SHEYENNE NWR     N/A      9  -1  64 NE16      29.95S WCI  -8
BUFFALO          N/A      5  -5  63 SE20        N/A  WCI -15
WYNDMERE       NOT AVBL
 ***** THE ABOVE OBSERVATIONS ARE NON NWS ARE NOT QUALITY
       CONTROLLED AND MAY MIS-REPORT RAIN FOR SNOW...
$$

  *****  WEATHER ACROSS NORTHERN MINNESOTA  *****

CITY           SKY/WX    TMP DP  RH WIND       PRES   REMARKS
FLAG ISLAND    FAIR       5  -9  51 N13       30.20F WCI -12
WARROAD        FAIR       7  -2  66 NE9       30.20F WCI  -7
ROSEAU         NOT AVBL
HALLOCK        FAIR       7  -9  47 N10       30.25S WCI  -8
THF RVR FALLS  FAIR       9  -4  55 N15       30.18F WCI  -8
HALSTAD        NOT AVBL
FOSSTON        FAIR      12   0  57 NE13G20   30.11F WCI  -3
BAUDETTE       FAIR       6  -4  63 W8        30.16F WCI  -7
WASKISH        FAIR      12   0  57 N13       30.13F WCI  -3
CROOKSTON      FAIR       9  -2  61 N14G21    30.20F WCI  -8
$$
  *****  WEATHER ACROSS CENTRAL AND WEST MINNESOTA  *****

CITY           SKY/WX    TMP DP  RH WIND       PRES   REMARKS
BEMIDJI        FAIR      10  -1  60 NE12      30.07F WCI  -4
PARK RAPIDS    CLOUDY    13   0  56 NE12G22   30.03S WCI  -1
WADENA         FAIR      12   1  62 NE14G20   30.01S WCI  -3
DETROIT LAKES  FAIR      16   1  53 NE10      30.05S WCI   3
MOORHEAD       FAIR      10   0  61 N20G25    30.13F WCI  -8
FERGUS FALLS   CLOUDY    14   0  52 NE13G21   30.05F WCI   0
ELBOW LAKE     CLOUDY    14   5  69 NE14      30.02F WCI  -1
MORRIS MN      CLOUDY    16   9  73 N17G24    29.98F WCI   0
STAPLES        FLURRIES  12   3  67 NE10G16   30.01S WCI  -1
WHEATON        FLURRIES  16   3  57 N14G20    30.06F WCI   1
$$
  *****  WEATHER ELSEWHERE ACROSS MINNESOTA  *****

CITY           SKY/WX    TMP DP  RH WIND       PRES   REMARKS
DULUTH         LGT SNOW  14   8  77 NE18G24   30.02S VSB 3/4 WCI  -3
INTRNTL FALLS  FAIR      10  -3  55 NE10      30.16F WCI  -4
ELY            PTSUNNY    9   0  66 NE9       30.09R WCI  -5
CLOQUET        LGT SNOW  14   9  79 NE9G16    30.02F WCI   2
BRAINERD       LGT SNOW  14   5  67 N14       30.01F WCI  -1
HIBBING        CLOUDY    10   0  63 N14G20    30.06S WCI  -6
ALEXANDRIA     CLOUDY    14   7  73 NE15      29.97F WCI  -1
SAINT CLOUD    CLOUDY    15   9  76 N13G20    29.93F HAZE    WCI   1
MINNEAPOLIS    LGT SNOW  22  19  89 NE17G29   29.85F FOG     WCI   8
$$

  *****  WEATHER ACROSS SOUTH DAKOTA  *****

CITY           SKY/WX    TMP DP  RH WIND       PRES   REMARKS
SIOUX FALLS    LGT SNOW  17  12  80 N18       29.87R WCI   1
BROOKINGS      LGT SNOW  11   7  84 N17G25    29.89R FOG     WCI  -6
WATERTOWN      CLOUDY    10   5  80 N24       29.92F WCI -10
HURON          LGT SNOW  12   7  80 N20       30.00R WCI  -6
SISSETON         N/A     12   5  73 N20       30.04F WCI  -6
ABERDEEN       LGT SNOW  12   3  67 N18G29    30.08R WCI  -6
MITCHELL       LGT SNOW  15  10  80 N23       29.96S WCI  -3
PIERRE         LGT SNOW   8   4  83 N21       30.02F FOG     WCI -12
MOBRIDGE       LGT SNOW   8   1  73 N17       30.05F VSB 3/4 WCI -10
RAPID CITY     LGT SNOW   1  -4  79 N15       29.93F VSB 1   WCI -18
$$

  *****  SOME WEATHER IN NEARBY STATES *****

CITY           SKY/WX    TMP DP  RH WIND       PRES   REMARKS
GLASGOW MT     PTSUNNY    0  -6  76 NW6       30.12F HAZE    WCI -12
GREAT FALLS MT FAIR      -4 -10  75 MISG      29.99F
CHEYENNE WY    LGT SNOW   6   4  91 E9        29.54F VSB 1   WCI  -8
SCOTTSBLUFF NE LGT SNOW   7   0  73 NE12      29.77F WCI  -8
OMAHA NE       FLURRIES  24  22  91 NW15      29.81S WCI  11
DES MOINES IA  CLOUDY    35  34  96 NW13      29.71R FOG
DAVENPORT IA   PTSUNNY   62  55  77 S20G25    29.70R
CHICAGO IL     CLOUDY    53  51  93 SW16G24   29.74S FOG
EAU CLAIRE WI  FRZ RAIN  24  20  84 NE16G26   29.83F FOG     WCI  11
LA CROSSE WI   CLOUDY    39  31  72 NE9G17    29.73F
$$

  *****  SOME NATIONAL WEATHER *****

CITY           SKY/WX    TMP DP  RH WIND       PRES   REMARKS
LA GUARDIA NY  CLOUDY    48  40  73 S8        30.39F
RALEIGH NC     CLOUDY    48  46  93 CALM      30.40S FOG
ATLANTA GA     PTSUNNY   74  59  59 S14G21    30.25F
NEW ORLEANS LA PTSUNNY   82  66  58 S15G23    30.11F
OKLAHOMA CITY  CLOUDY    74  58  57 S24G32    29.71F
ALBUQUERQUE NM PTSUNNY   55  38  52 S32G38    29.61F
SALT LAKE CITY LGT SNOW  29  19  66 N14       29.57R WCI  18
LOS ANGELES CA FAIR      58  28  32 W28       29.92F
BOISE ID       PTSUNNY   31  16  54 NW20G29   29.79R WCI  19
SEATTLE WA     FAIR      35   9  33 N16G22    30.22R
$$

*** WEATHER ACROSS MANITOBA...SASKATCHEWAN AND ONTARIO ***
                ***ONTARIO***

CITY           SKY/WX    TMP DP  RH WIND       PRES   REMARKS
GERALDTON      CLOUDY     1  -8  66 NE10G17   30.24S WCI -14
THUNDER BAY    CLOUDY    10  -2  56 NE12G20   30.18F WCI  -4
SIOUX LOOKOUT  PTSUNNY    5 -13  43 N6        30.22F WCI  -6
TORONTO        DRZL/FOG  37  36  93 SE6       30.01F VSB 1/2
BIG TROUT LK   SUNNY    -15 -35  36 S2        30.35F
PICKLE LAKE    MOSUNNY   -2 -36  18 VRB2      30.26F
DRYDEN         SUNNY      5 -11  47 NE10      30.20S WCI -10
KENORA         PTSUNNY    5 -11  47 NE6       30.19F WCI  -6
$$
                *** MANITOBA***

CITY           SKY/WX    TMP DP  RH WIND       PRES   REMARKS
BRANDON        PTSUNNY    5  -8  56 W5        30.22F WCI  -4
DAUPHIN        SUNNY      3  -6  66 N3        30.23S
ISLAND LAKE    SUNNY     -8 -24  45 SE8       30.29F WCI -23
PILOT MOUND      N/A      3  -4  72 S1          N/A
THE PAS        MOSUNNY    7 -11  43 SW14      30.09F WCI -10
THOMPSON       MOSUNNY    0 -17  46 S9        30.10F WCI -16
WINNIPEG       PTSUNNY    3 -11  51 N7        30.29F WCI  -9
LYNN LAKE      PTSUNNY   -4 -13  65 SW8       29.91F WCI -19
CHURCHILL      MOSUNNY  -20 -33  52 SW8       30.19S WCI -39
GILLAM         PTSUNNY   -6 -24  41 S10       30.19  WCI -23
$$
                ***SASKATCHEWAN***

CITY           SKY/WX    TMP DP  RH WIND       PRES   REMARKS
ESTEVAN        PTSUNNY    0  -6  78 W5        30.16F WCI -10
KINDERSLEY     MOSUNNY    0  -4  85 SW13      30.04F WCI -18
LLOYDMINSTER   MOSUNNY    5  -2  72 W16       29.94F WCI -14
PRINCE ALBERT  PTSUNNY    1  -9  60 S10       30.07F WCI -14
REGINA         PTSUNNY    0  -6  78 SW6       30.15F WCI -12
YORKTON        SUNNY      5  -8  56 SW10      30.14F WC



USA.gov is the U.S. government's official web portal to all federal, state and local government web resources and services.